Date String (YYYY-MM-DD hh:mm:ss) UTC,Instrument flags,absolute air pressure of the measurement (hPa),sample flow rate (lpm),inlet stack bypass flow (lpm),air temperature of the measurement (°C),ambient temperature measured by the external sensor (°C),aerosol sample conditioner tube jacket temperature (°C),OPC LED temperature (°C),internal box temperature (°C),relative humidity of the measurement (%),span deviation,mass concentration of particles derived from Lorenz-Mie calculation of OPC scattering (μg/m³),mass concentration of particles derived from Lorenz-Mie calculation of OPC scattering (μg/m³),mass concentration of particles derived from Lorenz-Mie calculation of OPC scattering (μg/m³)
DateTimeUTC,F1_M11,P_M11,Q1_M11,Q2_M11,T1_M11,T2_M11,T3_M11,T4_M11,T5_M11,U1_M11,ZSPAN_M11,X2_M11,X0_M11,X1_M11
2024-04-28 05:00:00,SystemResetWarning,0825.7,5.01,000.00,021.7,021.1,000.0,030.3,023.6,025.9,0000.0,0000.74,0000.88,0000.69
2024-04-28 05:01:00,SystemResetWarning,0825.7,5.01,000.00,021.7,021.1,000.0,030.3,023.6,025.9,0000.0,0000.75,0000.90,0000.69
2024-04-28 05:02:00,SystemResetWarning,0825.7,5.01,000.00,021.7,021.1,000.0,030.3,023.6,025.8,0000.0,0000.76,0000.92,0000.70
2024-04-28 05:03:00,SystemResetWarning,0825.7,5.00,000.00,021.7,021.1,000.0,030.3,023.6,025.8,0000.0,0000.76,0000.91,0000.70
2024-04-28 05:04:00,SystemResetWarning,0825.7,4.99,000.00,021.7,021.1,000.0,030.3,023.6,025.8,0000.0,0000.76,0000.93,0000.70
2024-04-28 05:05:00,SystemResetWarning,0825.7,5.01,000.00,021.7,021.1,000.0,030.3,023.6,025.8,0000.0,0000.77,0000.94,0000.71
2024-04-28 05:06:00,SystemResetWarning,0825.7,5.01,000.00,021.7,021.1,000.0,030.3,023.6,025.8,0000.0,0000.77,0000.92,0000.71
2024-04-28 05:07:00,SystemResetWarning,0825.7,5.01,000.00,021.7,021.1,000.0,030.3,023.6,025.9,0000.0,0000.77,0000.93,0000.72
2024-04-28 05:08:00,SystemResetWarning,0825.7,5.00,000.00,021.7,021.1,000.0,030.3,023.6,025.9,0000.0,0000.79,0000.96,0000.72
2024-04-28 05:09:00,SystemResetWarning,0825.6,4.99,000.00,021.7,021.1,000.0,030.3,023.6,025.9,0000.0,0000.79,0000.93,0000.72
2024-04-28 05:10:00,SystemResetWarning,0825.6,5.00,000.00,021.7,021.1,000.0,030.3,023.6,025.8,0000.0,0000.79,0000.89,0000.73
2024-04-28 05:11:00,SystemResetWarning,0825.6,4.99,000.00,021.7,021.1,000.0,030.3,023.6,025.9,0000.0,0000.80,0000.89,0000.74
2024-04-28 05:12:00,SystemResetWarning,0825.6,5.00,000.00,021.7,021.1,000.0,030.3,023.6,025.8,0000.0,0000.80,0000.89,0000.74
2024-04-28 05:13:00,SystemResetWarning,0825.6,4.99,000.00,021.7,021.1,000.0,030.3,023.6,025.9,0000.0,0000.80,0000.86,0000.74
2024-04-28 05:14:00,SystemResetWarning,0825.6,5.00,000.00,021.7,021.1,000.0,030.3,023.6,025.9,0000.0,0000.81,0000.88,0000.75
2024-04-28 05:15:00,SystemResetWarning,0825.6,5.00,000.00,021.7,021.1,000.0,030.3,023.6,026.0,0000.0,0000.82,0000.87,0000.76
2024-04-28 05:16:00,SystemResetWarning,0825.6,5.01,000.00,021.7,021.1,000.0,030.3,023.6,026.0,0000.0,0000.81,0000.84,0000.77
2024-04-28 05:17:00,SystemResetWarning,0825.6,5.00,000.00,021.7,021.1,000.0,030.3,023.6,026.0,0000.0,0000.83,0000.87,0000.79
2024-04-28 05:18:00,SystemResetWarning,0825.7,5.01,000.00,021.7,021.1,000.0,030.3,023.6,025.9,0000.0,0000.87,0000.90,0000.82
2024-04-28 05:19:00,SystemResetWarning,0825.7,5.00,000.00,021.7,021.1,000.0,030.3,023.6,026.0,0000.0,0000.90,0000.93,0000.86
2024-04-28 05:20:00,SystemResetWarning,0825.7,5.00,000.00,021.7,021.1,000.0,030.3,023.6,026.1,0000.0,0000.93,0000.98,0000.90
2024-04-28 05:21:00,SystemResetWarning,0825.7,4.99,000.00,021.7,021.1,000.0,030.3,023.6,026.1,0000.0,0000.98,0001.06,0000.93
2024-04-28 05:22:00,SystemResetWarning,0825.7,5.00,000.00,021.7,021.1,000.0,030.3,023.6,026.1,0000.0,0001.00,0001.05,0000.97
2024-04-28 05:23:00,SystemResetWarning,0825.7,5.00,000.00,021.7,021.1,000.0,030.3,023.6,026.2,0000.0,0001.05,0001.10,0001.02
2024-04-28 05:24:00,SystemResetWarning,0825.7,5.00,000.00,021.7,021.1,000.0,030.3,023.6,026.6,0000.0,0001.11,0001.17,0001.07
2024-04-28 05:25:00,SystemResetWarning,0825.6,5.01,000.00,021.7,021.1,000.0,030.3,023.6,026.4,0000.0,0001.18,0001.26,0001.13
2024-04-28 05:26:00,SystemResetWarning,0825.6,5.00,000.00,021.7,021.1,000.0,030.3,023.5,026.2,0000.0,0001.26,0001.36,0001.20
2024-04-28 05:27:00,SystemResetWarning,0825.6,5.00,000.00,021.7,021.1,000.0,030.3,023.6,026.2,0000.0,0001.36,0001.46,0001.28
2024-04-28 05:28:00,SystemResetWarning,0825.6,5.00,000.00,021.7,021.1,000.0,030.3,023.6,026.2,0000.0,0001.44,0001.56,0001.34
2024-04-28 05:29:00,SystemResetWarning,0825.6,4.99,000.00,021.7,021.1,000.0,030.3,023.6,026.2,0000.0,0001.49,0001.63,0001.37
2024-04-28 05:30:00,SystemResetWarning,0825.5,5.00,000.00,021.7,021.1,000.0,030.3,023.6,026.2,0000.0,0001.52,0001.66,0001.39
2024-04-28 05:31:00,SystemResetWarning,0825.6,5.00,000.00,021.7,021.1,000.0,030.3,023.6,026.3,0000.0,0001.56,0001.73,0001.42
2024-04-28 05:32:00,SystemResetWarning,0825.6,5.00,000.00,021.7,021.1,000.0,030.2,023.6,026.3,0000.0,0001.61,0001.84,0001.44
2024-04-28 05:33:00,SystemResetWarning,0825.6,5.00,000.00,021.7,021.1,000.0,030.2,023.5,026.3,0000.0,0001.64,0001.87,0001.46
2024-04-28 05:34:00,SystemResetWarning,0825.6,5.00,000.00,021.7,021.1,000.0,030.2,023.5,026.3,0000.0,0001.65,0002.66,0001.45
2024-04-28 05:35:00,SystemResetWarning,0825.6,5.00,000.00,021.7,021.1,000.0,030.3,023.5,026.3,0000.0,0001.65,0003.67,0001.43
2024-04-28 05:36:00,SystemResetWarning,0825.5,5.00,000.00,021.7,021.1,000.0,030.2,023.5,026.3,0000.0,0001.62,0003.63,0001.40
2024-04-28 05:37:00,SystemResetWarning,0825.5,5.00,000.00,021.7,021.1,000.0,030.2,023.5,026.3,0000.0,0001.62,0003.65,0001.38
2024-04-28 05:38:00,SystemResetWarning,0825.6,5.00,000.00,021.7,021.1,000.0,030.2,023.5,026.3,0000.0,0001.59,0003.64,0001.35
2024-04-28 05:39:00,SystemResetWarning,0825.5,5.01,000.00,021.7,021.1,000.0,030.2,023.5,026.3,0000.0,0001.56,0003.63,0001.31
2024-04-28 05:40:00,SystemResetWarning,0825.5,5.00,000.00,021.7,021.1,000.0,030.2,023.5,026.2,0000.0,0001.53,0003.58,0001.28
2024-04-28 05:41:00,SystemResetWarning,0825.5,5.01,000.00,021.7,021.1,000.0,030.2,023.5,026.3,0000.0,0001.51,0003.58,0001.26
2024-04-28 05:42:00,SystemResetWarning,0825.5,5.00,000.00,021.7,021.1,000.0,030.2,023.5,026.3,0000.0,0001.47,0003.51,0001.23
2024-04-28 05:43:00,SystemResetWarning,0825.5,4.99,000.00,021.7,021.1,000.0,030.2,023.5,026.2,0000.0,0001.40,0003.33,0001.20
2024-04-28 05:44:00,SystemResetWarning,0825.5,5.00,000.00,021.7,021.1,000.0,030.2,023.5,026.2,0000.0,0001.38,0003.32,0001.17
2024-04-28 05:45:00,SystemResetWarning,0825.5,5.01,000.00,021.7,021.1,000.0,030.2,023.5,026.3,0000.0,0001.37,0003.29,0001.16
2024-04-28 05:46:00,SystemResetWarning,0825.5,5.01,000.00,021.7,021.1,000.0,030.2,023.5,026.4,0000.0,0001.34,0001.57,0001.14
2024-04-28 05:47:00,SystemResetWarning,0825.5,4.99,000.00,021.7,021.1,000.0,030.2,023.5,026.4,0000.0,0001.34,0001.57,0001.13
2024-04-28 05:48:00,SystemResetWarning,0825.4,5.00,000.00,021.7,021.1,000.0,030.2,023.5,026.4,0000.0,0001.31,0001.52,0001.12
2024-04-28 05:49:00,SystemResetWarning,0825.4,5.01,000.00,021.7,021.1,000.0,030.2,023.5,026.3,0000.0,0001.28,0001.59,0001.11
2024-04-28 05:50:00,SystemResetWarning,0825.4,5.00,000.00,021.7,021.1,000.0,030.2,023.5,026.3,0000.0,0001.26,0001.53,0001.10
2024-04-28 05:51:00,SystemResetWarning,0825.4,5.00,000.00,021.7,021.1,000.0,030.2,023.5,026.4,0000.0,0001.23,0001.50,0001.09
2024-04-28 05:52:00,SystemResetWarning,0825.4,5.00,000.00,021.7,021.1,000.0,030.2,023.5,026.4,0000.0,0001.21,0001.54,0001.08
2024-04-28 05:53:00,SystemResetWarning,0825.4,4.99,000.00,021.7,021.1,000.0,030.2,023.5,026.4,0000.0,0001.21,0001.55,0001.09
2024-04-28 05:54:00,SystemResetWarning,0825.4,4.99,000.00,021.7,021.1,000.0,030.2,023.5,026.4,0000.0,0001.22,0001.58,0001.09
2024-04-28 05:55:00,SystemResetWarning,0825.4,5.00,000.00,021.7,021.1,000.0,030.2,023.5,026.4,0000.0,0001.25,0001.69,0001.08
2024-04-28 05:56:00,SystemResetWarning,0825.4,5.00,000.00,021.7,021.1,000.0,030.2,023.5,026.8,0000.0,0001.22,0001.65,0001.08
2024-04-28 05:57:00,SystemResetWarning,0825.4,5.00,000.00,021.7,021.1,000.0,030.2,023.5,026.7,0000.0,0001.22,0001.62,0001.08
2024-04-28 05:58:00,SystemResetWarning,0825.4,5.00,000.00,021.7,021.1,000.0,030.2,023.5,026.4,0000.0,0001.22,0001.62,0001.08
2024-04-28 05:59:00,SystemResetWarning,0825.4,5.00,000.00,021.7,021.1,000.0,030.2,023.5,026.3,0000.0,0001.23,0001.68,0001.08
